FW7212 Weather Reports


time (UTC)temp
C
wind
direction
speed
KPH
gust
KPH
rain 1hr
cm
rain 24hr
cm
rain mn
cm
humidity
%
barometer
mb
20260510190508 20 300 3.2 8.0 0.00 0.00 0.00 45 1014.6
20260510190018 21 327 3.2 19.3 0.00 0.00 0.00 44 1014.6
20260510185534 21 11 1.6 19.3 0.00 0.00 0.00 47 1014.6
20260510185042 21 306 1.6 8.0 0.00 0.00 0.00 46 1014.5
20260510184556 20 301 3.2 8.0 0.00 0.00 0.00 47 1014.5
20260510184008 20 46 0.0 6.4 0.00 0.00 0.00 46 1014.5
20260510183522 20 51 0.0 8.0 0.00 0.00 0.00 46 1014.6
20260510183039 20 335 1.6 8.0 0.00 0.00 0.00 48 1014.6
20260510182550 20 10 1.6 8.0 0.00 0.00 0.00 49 1014.7
20260510182102 20 281 1.6 6.4 0.00 0.00 0.00 49 1014.5
20260510181515 20 273 1.6 9.7 0.00 0.00 0.00 50 1014.3
20260510181025 20 32 3.2 12.9 0.00 0.00 0.00 50 1014.2
20260510180539 20 311 4.8 12.9 0.00 0.00 0.00 49 1014.3
20260510180058 20 273 4.8 9.7 0.00 0.00 0.00 47 1014.3
20260510175508 20 276 3.2 9.7 0.00 0.00 0.00 49 1014.3
20260510175021 20 347 3.2 6.4 0.00 0.00 0.00 54 1014.4
20260510174530 19 319 0.0 4.8 0.00 0.00 0.00 51 1014.3
20260510174045 19 169 0.0 6.4 0.00 0.00 0.00 50 1014.4
20260510173556 19 183 0.0 6.4 0.00 0.00 0.00 50 1014.3
20260510173012 18 309 0.0 6.4 0.00 0.00 0.00 46 1014.4
20260510172523 18 319 0.0 4.8 0.00 0.00 0.00 55 1014.3
20260510172036 18 315 1.6 8.0 0.00 0.00 0.00 51 1014.3
20260510171549 18 32 1.6 16.1 0.00 0.00 0.00 51 1014.3
20260510171007 18 336 3.2 8.0 0.00 0.00 0.00 50 1014.4
20260510170514 18 317 3.2 8.0 0.00 0.00 0.00 52 1014.6
20260510170034 18 267 1.6 11.3 0.00 0.00 0.00 52 1014.5
20260510165538 18 284 1.6 14.5 0.00 0.00 0.00 59 1014.6
20260510165053 17 308 4.8 9.7 0.00 0.00 0.00 58 1014.5
20260510164504 17 300 1.6 4.8 0.00 0.00 0.00 67 1014.5
20260510164018 17 70 0.0 6.4 0.00 0.00 0.00 64 1014.4
20260510163528 17 11 0.0 6.4 0.00 0.00 0.00 63 1014.4
20260510163045 17 281 1.6 6.4 0.00 0.00 0.00 67 1014.4
20260510162553 17 335 1.6 4.8 0.00 0.00 0.00 64 1014.3
20260510162010 17 300 1.6 6.4 0.00 0.00 0.00 69 1014.2
20260510161518 16 22 0.0 3.2 0.00 0.00 0.00 75 1014.2
20260510161032 16 24 0.0 3.2 0.00 0.00 0.00 75 1014.0
20260510160536 16 24 0.0 3.2 0.00 0.00 0.00 71 1014.0
20260510160059 16 130 0.0 3.2 0.00 0.00 0.00 73 1014.0
20260510155600 15 296 0.0 3.2 0.00 0.00 0.00 74 1014.1
20260510155510 15 296 0.0 3.2 0.00 0.00 0.00 75 1014.1
20260510155050 15 225 0.0 3.2 0.00 0.00 0.00 76 1014.1
20260510154501 15 157 0.0 3.2 0.00 0.00 0.00 76 1013.8
20260510154058 15 192 0.0 1.6 0.00 0.00 0.00 78 1013.7
20260510153512 15 232 0.0 3.2 0.00 0.00 0.00 78 1013.6
20260510153031 15 112 0.0 6.4 0.00 0.00 0.00 78 1013.7
20260510152538 15 273 0.0 6.4 0.00 0.00 0.00 81 1013.7
20260510152056 15 74 0.0 6.4 0.00 0.00 0.00 80 1013.5
20260510151508 15 310 0.0 3.2 0.00 0.00 0.00 82 1013.4
20260510151016 15 331 0.0 3.2 0.00 0.00 0.00 84 1013.4
20260510150531 14 331 0.0 3.2 0.00 0.00 0.00 84 1013.1
20260510150042 14 331 0.0 3.2 0.00 0.00 0.00 84 1013.2
20260510145538 14 293 0.0 1.6 0.00 0.00 0.00 85 1013.4
20260510145046 14 293 0.0 1.6 0.00 0.00 0.00 85 1013.4
20260510144522 14 293 0.0 3.2 0.00 0.00 0.00 86 1013.4
20260510144026 14 293 0.0 3.2 0.00 0.00 0.00 86 1013.4
20260510143534 13 293 0.0 1.6 0.00 0.00 0.00 87 1013.3
20260510143052 13 293 0.0 1.6 0.00 0.00 0.00 88 1013.3
20260510142558 13 293 0.0 0.0 0.00 0.00 0.00 86 1013.2
20260510142508 13 293 0.0 0.0 0.00 0.00 0.00 86 1013.2
20260510142025 13 293 0.0 1.6 0.00 0.00 0.00 87 1013.3
20260510141543 13 293 0.0 3.2 0.00 0.00 0.00 87 1013.3
20260510141039 13 293 0.0 1.6 0.00 0.00 0.00 88 1013.3
20260510140554 13 293 0.0 1.6 0.00 0.00 0.00 88 1013.3
20260510140008 13 293 0.0 3.2 0.00 0.08 0.00 88 1013.3
20260510135559 13 293 0.0 1.6 0.00 0.08 0.00 88 1013.3
20260510135001 13 293 0.0 0.0 0.00 0.08 0.00 88 1013.2
20260510134540 13 293 0.0 0.0 0.00 0.08 0.00 88 1012.9
20260510134057 13 293 0.0 1.6 0.00 0.08 0.00 87 1012.7
20260510133555 13 293 0.0 1.6 0.00 0.08 0.00 86 1012.6
20260510133008 13 293 0.0 1.6 0.00 0.08 0.00 86 1012.6
20260510132518 13 293 0.0 1.6 0.00 0.08 0.00 85 1012.7
20260510132104 13 293 0.0 1.6 0.00 0.08 0.00 86 1012.6
20260510131608 13 293 0.0 1.6 0.00 0.08 0.00 86 1012.3
20260510131048 13 293 0.0 1.6 0.00 0.08 0.00 86 1012.3
20260510130604 13 293 0.0 1.6 0.00 0.08 0.00 87 1012.3
20260510130502 13 293 0.0 1.6 0.00 0.08 0.00 87 1012.3
20260510130027 13 293 0.0 1.6 0.00 0.25 0.00 86 1012.4
20260510125528 13 293 0.0 1.6 0.00 0.25 0.00 87 1012.5
20260510125019 13 293 0.0 1.6 0.00 0.25 0.00 87 1012.3
20260510124555 13 293 0.0 1.6 0.00 0.25 0.00 86 1012.2
20260510124016 13 293 0.0 1.6 0.00 0.25 0.00 87 1012.2
20260510123517 13 293 0.0 1.6 0.00 0.25 0.00 87 1012.1
20260510123030 13 293 0.0 0.0 0.00 0.25 0.00 87 1012.1
20260510122544 13 293 0.0 0.0 0.00 0.25 0.00 86 1011.8
20260510122054 13 293 0.0 3.2 0.00 0.25 0.00 86 1011.7
20260510121502 13 293 0.0 3.2 0.00 0.25 0.00 86 1012.0
20260510121016 13 293 0.0 1.6 0.00 0.25 0.00 86 1011.9
20260510120511 13 293 0.0 3.2 0.00 0.25 0.00 87 1011.8
20260510120031 13 293 0.0 1.6 0.00 0.25 0.00 87 1011.9
20260510115534 13 293 0.0 3.2 0.00 0.48 0.00 87 1011.8
20260510115025 13 293 0.0 3.2 0.00 0.48 0.00 87 1011.8
20260510114534 13 293 0.0 3.2 0.00 0.48 0.00 87 1011.5
20260510114049 13 293 0.0 3.2 0.00 0.48 0.00 88 1011.5
20260510113559 13 293 0.0 3.2 0.00 0.48 0.00 88 1011.4
20260510113059 13 293 0.0 3.2 0.00 0.48 0.00 88 1011.2
20260510112558 13 293 0.0 3.2 0.00 0.48 0.00 89 1011.1
20260510112018 13 305 0.0 3.2 0.00 0.48 0.00 89 1011.0
20260510111630 13 305 0.0 3.2 0.00 0.48 0.00 88 1010.9
20260510111502 13 305 0.0 3.2 0.00 0.48 0.00 88 1010.9
20260510111016 13 305 0.0 3.2 0.00 0.48 0.00 88 1010.8
20260510110526 13 305 0.0 3.2 0.00 0.48 0.00 88 1010.7
20260510110035 13 266 1.6 3.2 0.00 0.48 0.00 88 1010.5
20260510105530 13 266 0.0 3.2 0.00 0.56 0.00 88 1010.4
20260510105045 13 266 0.0 3.2 0.00 0.56 0.00 88 1010.2
20260510104607 13 266 0.0 1.6 0.00 0.56 0.00 88 1010.1
20260510104046 13 266 0.0 1.6 0.00 0.56 0.00 87 1010.0
20260510103556 13 266 0.0 3.2 0.00 0.56 0.00 87 1009.9
20260510103012 13 266 0.0 6.4 0.00 0.56 0.00 87 1009.8
20260510102605 13 259 1.6 6.4 0.00 0.56 0.00 87 1009.7
20260510102013 13 265 1.6 3.2 0.00 0.56 0.00 86 1009.4
20260510101525 13 265 0.0 3.2 0.00 0.56 0.00 87 1009.3
20260510101040 13 245 0.0 6.4 0.00 0.56 0.00 86 1009.3
20260510100528 13 240 0.0 6.4 0.00 0.56 0.00 86 1009.4
20260510100041 13 227 0.0 6.4 0.00 0.56 0.00 86 1009.4
20260510095550 13 202 0.0 8.0 0.00 0.58 0.00 86 1009.2
20260510095046 13 261 1.6 8.0 0.00 0.58 0.00 86 1009.1
20260510094551 13 262 0.0 8.0 0.00 0.58 0.00 86 1009.2
20260510094008 13 197 0.0 3.2 0.00 0.58 0.00 85 1009.0
20260510093507 13 196 0.0 6.4 0.00 0.58 0.00 85 1009.0
20260510093014 13 240 0.0 8.0 0.00 0.58 0.00 85 1008.8
20260510092523 13 272 0.0 8.0 0.00 0.58 0.00 85 1008.5
20260510092039 13 259 0.0 8.0 0.00 0.58 0.00 85 1008.6
20260510091546 13 173 0.0 6.4 0.00 0.58 0.00 85 1008.5
20260510091040 13 266 1.6 6.4 0.00 0.58 0.00 85 1008.5
20260510090555 13 252 0.0 6.4 0.00 0.58 0.00 85 1008.4
20260510090105 13 219 0.0 3.2 0.00 0.58 0.00 85 1008.5
20260510085557 13 192 0.0 6.4 0.00 0.66 0.00 85 1008.3
20260510085013 13 213 0.0 6.4 0.00 0.66 0.00 84 1008.4
20260510084525 14 255 0.0 3.2 0.00 0.66 0.00 84 1008.5
20260510084012 14 254 0.0 3.2 0.00 0.66 0.00 84 1008.3
20260510083521 14 254 0.0 8.0 0.00 0.66 0.00 84 1008.1
20260510083037 14 171 0.0 8.0 0.00 0.66 0.00 84 1008.1
20260510082525 14 213 1.6 8.0 0.00 0.66 0.00 84 1008.1
20260510082040 14 251 0.0 8.0 0.00 0.66 0.00 84 1008.2
20260510081550 14 221 0.0 8.0 0.00 0.66 0.00 84 1008.2
20260510081104 14 204 1.6 9.7 0.00 0.66 0.00 84 1008.2
20260510080552 14 271 1.6 9.7 0.00 0.66 0.00 83 1008.3
20260510080012 14 237 1.6 9.7 0.00 0.69 0.00 83 1008.2
20260510075524 14 217 1.6 9.7 0.00 0.69 0.00 83 1008.2
20260510075016 14 198 1.6 9.7 0.00 0.69 0.00 83 1008.2
20260510074532 14 209 3.2 9.7 0.00 0.69 0.00 83 1008.2
20260510074045 14 229 0.0 8.0 0.00 0.69 0.00 83 1008.2
20260510073542 14 201 1.6 11.3 0.00 0.69 0.00 83 1008.0
20260510073046 14 251 3.2 11.3 0.00 0.69 0.00 83 1008.0
20260510072600 14 255 1.6 9.7 0.00 0.69 0.00 83 1008.0
20260510072502 14 286 3.2 9.7 0.00 0.69 0.00 83 1008.0
20260510072013 14 174 3.2 9.7 0.00 0.69 0.00 83 1008.0
20260510071601 14 180 1.6 9.7 0.00 0.69 0.00 83 1008.0
20260510071502 14 227 3.2 9.7 0.00 0.69 0.00 83 1008.1
20260510071014 14 268 0.0 8.0 0.00 0.69 0.00 83 1008.2
20260510070528 14 244 1.6 8.0 0.00 0.69 0.00 82 1008.3
20260510070019 14 267 1.6 8.0 0.00 0.69 0.00 82 1008.2
20260510065526 14 212 1.6 8.0 0.00 0.69 0.00 82 1008.2
20260510065037 14 207 1.6 9.7 0.00 0.69 0.00 82 1008.2
20260510064605 14 207 0.0 9.7 0.00 0.69 0.00 81 1008.1
20260510064040 15 223 1.6 6.4 0.00 0.69 0.00 81 1008.1
20260510063554 15 267 0.0 8.0 0.00 0.69 0.00 81 1008.1
20260510063014 15 246 3.2 9.7 0.00 0.69 0.00 81 1008.1
20260510062600 15 236 3.2 9.7 0.00 0.69 0.00 80 1008.2
20260510062010 15 270 3.2 11.3 0.00 0.69 0.00 80 1008.1
20260510061540 15 234 3.2 11.3 0.00 0.69 0.00 80 1008.0
20260510061012 15 220 1.6 11.3 0.00 0.69 0.00 80 1008.1
20260510060526 15 236 3.2 9.7 0.00 0.69 0.00 79 1008.2
20260510060040 15 217 3.2 11.3 0.00 0.69 0.00 79 1008.2
20260510055549 15 271 1.6 11.3 0.00 0.69 0.00 79 1008.0
20260510055037 15 184 1.6 9.7 0.00 0.69 0.00 79 1008.1
20260510054550 15 264 3.2 9.7 0.00 0.69 0.00 79 1008.1
20260510054059 15 214 4.8 14.5 0.00 0.69 0.00 78 1008.1
20260510054003 15 224 3.2 14.5 0.00 0.69 0.00 78 1008.1
20260510053549 15 252 4.8 14.5 0.00 0.69 0.00 78 1008.1
20260510053100 15 248 1.6 9.7 0.00 0.69 0.00 78 1008.0
20260510052520 15 263 1.6 11.3 0.00 0.69 0.00 77 1008.1
20260510052015 15 252 3.2 12.9 0.00 0.69 0.00 77 1008.0
20260510051514 15 243 3.2 9.7 0.00 0.69 0.00 77 1008.1
20260510051026 15 193 0.0 14.5 0.00 0.69 0.00 76 1008.1
20260510050543 15 242 3.2 16.1 0.00 0.69 0.00 76 1008.0
20260510050034 15 230 3.2 14.5 0.00 0.69 0.00 76 1007.9
20260510045542 16 202 0.0 12.9 0.00 0.69 0.00 76 1007.9
20260510045052 16 157 6.4 14.5 0.00 0.69 0.00 75 1007.9
20260510044609 16 264 1.6 14.5 0.00 0.69 0.00 75 1007.9
20260510044100 16 201 0.0 9.7 0.00 0.69 0.00 74 1007.9
20260510044004 16 161 1.6 9.7 0.00 0.69 0.00 74 1007.9
20260510043516 16 167 1.6 17.7 0.00 0.69 0.00 74 1007.8
20260510043026 16 201 3.2 17.7 0.00 0.69 0.00 74 1007.8
20260510042523 16 281 0.0 12.9 0.00 0.69 0.00 74 1007.8
20260510042033 16 175 1.6 12.9 0.00 0.69 0.00 73 1007.6
20260510041602 16 227 3.2 16.1 0.00 0.69 0.00 73 1007.7
20260510041041 16 264 4.8 16.1 0.00 0.69 0.00 73 1007.7
20260510040556 16 134 3.2 17.7 0.00 0.69 0.00 73 1007.7
20260510040010 16 253 6.4 17.7 0.00 0.69 0.69 73 1007.6
20260510035609 16 189 4.8 14.5 0.00 0.69 0.69 73 1007.6
20260510035003 16 246 4.8 14.5 0.00 0.69 0.69 72 1007.6
20260510034513 16 207 3.2 12.9 0.00 0.69 0.69 72 1007.6
20260510034026 16 261 0.0 12.9 0.00 0.69 0.69 72 1007.6
20260510033510 16 284 3.2 11.3 0.00 0.69 0.69 72 1007.7
20260510033025 16 202 1.6 11.3 0.00 0.69 0.69 71 1007.7
20260510032535 16 207 0.0 11.3 0.00 0.69 0.69 71 1007.6
20260510032032 16 296 3.2 11.3 0.00 0.69 0.69 71 1007.6
20260510031547 16 200 0.0 8.0 0.00 0.69 0.69 70 1007.5
20260510031053 16 167 1.6 12.9 0.00 0.69 0.69 70 1007.5
20260510030506 16 226 4.8 12.9 0.00 0.69 0.69 70 1007.5
20260510030007 16 194 1.6 11.3 0.00 0.69 0.69 70 1007.5
20260510025518 16 229 1.6 12.9 0.00 0.69 0.69 70 1007.3
20260510025033 16 244 1.6 12.9 0.00 0.69 0.69 70 1007.4
20260510024517 16 182 0.0 9.7 0.00 0.69 0.69 70 1007.3
20260510024032 16 157 1.6 12.9 0.00 0.69 0.69 70 1007.2
20260510023546 16 248 1.6 12.9 0.00 0.69 0.69 70 1007.2
20260510023054 16 184 0.0 11.3 0.00 0.69 0.69 70 1007.1
20260510022554 17 236 3.2 14.5 0.00 0.69 0.69 69 1007.1
20260510022007 17 194 0.0 11.3 0.00 0.69 0.69 69 1007.0
20260510021521 17 178 1.6 8.0 0.00 0.69 0.69 69 1007.1
20260510021012 17 259 0.0 8.0 0.00 0.69 0.69 68 1006.9
20260510020527 17 96 0.0 8.0 0.00 0.69 0.69 68 1006.9
20260510020037 17 106 1.6 9.7 0.00 0.69 0.69 68 1006.9
20260510015543 17 211 1.6 11.3 0.00 0.69 0.69 67 1006.9
20260510015047 17 179 3.2 14.5 0.00 0.69 0.69 67 1006.8
20260510014503 17 123 0.0 14.5 0.00 0.69 0.69 67 1006.8
20260510014016 17 198 1.6 8.0 0.00 0.69 0.69 66 1006.7
20260510013511 17 192 0.0 9.7 0.00 0.69 0.69 66 1006.7
20260510013023 17 202 1.6 11.3 0.00 0.69 0.69 66 1006.6
20260510012536 17 235 0.0 11.3 0.00 0.69 0.69 65 1006.5
20260510012024 17 202 0.0 12.9 0.00 0.69 0.69 64 1006.4
20260510011541 18 128 0.0 9.7 0.00 0.69 0.69 64 1006.4
20260510011048 18 136 3.2 9.7 0.00 0.69 0.69 64 1006.3
20260510010604 18 192 0.0 8.0 0.00 0.69 0.69 63 1006.3
20260510010053 18 194 0.0 8.0 0.00 0.69 0.69 63 1006.2
20260510005511 18 173 0.0 8.0 0.00 0.69 0.69 62 1006.2
20260510005020 18 206 1.6 9.7 0.00 0.69 0.69 62 1006.1
20260510004513 18 101 1.6 9.7 0.00 0.69 0.69 62 1005.9
20260510004025 18 243 0.0 8.0 0.00 0.69 0.69 62 1005.9
20260510003547 18 254 1.6 11.3 0.00 0.69 0.69 62 1005.7
20260510003044 19 186 3.2 11.3 0.00 0.69 0.69 61 1005.7
20260510002540 19 180 3.2 11.3 0.00 0.69 0.69 60 1005.7
20260510002050 19 170 0.0 11.3 0.00 0.69 0.69 60 1005.7
20260510001507 19 87 1.6 11.3 0.00 0.69 0.69 59 1005.7
20260510001017 20 182 3.2 12.9 0.00 0.69 0.69 59 1005.6
20260510000536 20 197 4.8 12.9 0.00 0.69 0.69 58 1005.5
20260510000047 20 252 3.2 11.3 0.00 0.69 0.69 58 1005.5
20260509235505 20 291 1.6 12.9 0.00 0.69 0.69 58 1005.5
20260509235015 20 148 3.2 12.9 0.00 0.69 0.69 57 1005.5
20260509234539 20 96 0.0 12.9 0.00 0.69 0.69 57 1005.4
20260509234038 20 101 4.8 12.9 0.00 0.69 0.69 56 1005.4
20260509233557 20 113 3.2 12.9 0.00 0.69 0.69 57 1005.4
20260509233023 20 221 4.8 16.1 0.00 0.69 0.69 56 1005.5
20260509232523 20 126 6.4 16.1 0.00 0.69 0.69 56 1005.4
20260509232033 20 90 3.2 11.3 0.00 0.69 0.69 56 1005.3
20260509231604 20 223 1.6 16.1 0.00 0.69 0.69 57 1005.2
20260509231057 20 288 6.4 14.5 0.00 0.69 0.69 55 1005.3
20260509230512 21 123 3.2 22.5 0.00 0.69 0.69 56 1005.3
20260509230023 21 241 8.0 22.5 0.00 0.69 0.69 55 1005.3
20260509225537 21 169 4.8 20.9 0.00 0.69 0.69 54 1005.2
20260509225046 21 257 6.4 20.9 0.00 0.69 0.69 54 1005.2
20260509224502 21 204 4.8 16.1 0.00 0.69 0.69 53 1005.2
20260509224019 21 154 4.8 16.1 0.00 0.69 0.69 55 1005.1
20260509223531 21 237 1.6 24.1 0.00 0.69 0.69 54 1005.1
20260509223044 21 281 11.3 24.1 0.00 0.69 0.69 54 1005.2
20260509222555 21 209 8.0 19.3 0.00 0.69 0.69 53 1005.2
20260509222011 22 299 4.8 24.1 0.00 0.69 0.69 52 1005.3
20260509221521 22 203 9.7 24.1 0.00 0.69 0.69 51 1005.4
20260509221039 22 190 4.8 12.9 0.00 0.69 0.69 54 1005.4
20260509220545 22 282 4.8 20.9 0.00 0.69 0.69 53 1005.4
20260509220058 22 198 4.8 20.9 0.00 0.69 0.69 53 1005.5
20260509220001 22 273 6.4 20.9 0.00 0.69 0.69 54 1005.5
20260509215511 22 245 8.0 19.3 0.00 0.69 0.69 54 1005.6
20260509215026 22 153 3.2 16.1 0.00 0.69 0.69 54 1005.5
20260509214537 22 279 1.6 17.7 0.00 0.69 0.69 54 1005.6
20260509214052 22 252 8.0 17.7 0.00 0.69 0.69 53 1005.6
20260509213512 22 107 4.8 19.3 0.00 0.69 0.69 53 1005.5
20260509213019 22 126 9.7 19.3 0.00 0.69 0.69 51 1005.5
20260509212528 22 278 6.4 17.7 0.00 0.69 0.69 51 1005.5
20260509212045 22 155 3.2 17.7 0.00 0.69 0.69 56 1005.5
20260509211559 22 300 6.4 17.7 0.00 0.69 0.69 54 1005.4
20260509211009 22 280 3.2 17.7 0.00 0.69 0.69 52 1005.4
20260509210519 22 290 8.0 19.3 0.00 0.69 0.69 50 1005.5
20260509210036 22 192 6.4 20.9 0.00 0.69 0.69 51 1005.5
20260509205546 22 179 6.4 20.9 0.00 0.69 0.69 55 1005.5
20260509205056 22 211 6.4 17.7 0.00 0.69 0.69 52 1005.5
20260509205001 22 221 3.2 17.7 0.00 0.69 0.69 51 1005.5
20260509204515 22 261 9.7 17.7 0.00 0.69 0.69 51 1005.6
20260509204027 22 217 8.0 22.5 0.00 0.69 0.69 53 1005.7
20260509203543 21 326 8.0 22.5 0.00 0.69 0.69 53 1005.7
20260509203049 21 261 8.0 20.9 0.00 0.69 0.69 55 1005.8
20260509202504 21 284 6.4 17.7 0.00 0.69 0.69 55 1006.1
20260509202015 21 253 4.8 17.7 0.00 0.69 0.69 53 1006.2
20260509201529 22 236 6.4 17.7 0.00 0.69 0.69 57 1006.2
20260509201038 22 265 6.4 12.9 0.00 0.69 0.69 55 1006.2
20260509200552 21 117 6.4 14.5 0.00 0.69 0.69 54 1006.2
20260509200108 21 287 6.4 14.5 0.00 0.69 0.69 56 1006.2
20260509200003 21 290 8.0 14.5 0.00 0.69 0.69 54 1006.3
20260509195517 21 294 6.4 14.5 0.00 0.69 0.69 57 1006.2
20260509195029 21 244 3.2 16.1 0.00 0.69 0.69 59 1006.2
20260509194543 20 229 1.6 16.1 0.00 0.69 0.69 60 1006.5
20260509194057 21 168 6.4 16.1 0.00 0.69 0.69 58 1006.6
20260509193509 21 240 1.6 19.3 0.00 0.69 0.69 61 1006.7
20260509193021 21 212 6.4 19.3 0.00 0.69 0.69 57 1006.7
20260509192538 21 184 8.0 17.7 0.00 0.69 0.69 58 1006.8
20260509192044 20 269 9.7 20.9 0.00 0.69 0.69 57 1006.7
20260509191503 20 188 8.0 17.7 0.00 0.69 0.69 59 1006.7
20260509191016 20 302 8.0 17.7 0.00 0.69 0.69 60 1006.7